• In Germany
  • List of Countries
  • For 7 days
  • Water Temperature
  • Satellite Maps
  • Weather Map
  • Weather Widgets
  • user-avatar
    Login

    Hourly Weather Kamienna Góra

    Today, 13 December, Wednesday

    Time Temperature Precipitation Wind Pressure Humidity
    00:00 -2°C° 0 mm 4 mps 720 mmHg 79%
    01:00 -2°C° 0 mm 3 mps 720 mmHg 85%
    02:00 -2°C° 0 mm 3 mps 720 mmHg 86%
    03:00 -2°C° 0 mm 3 mps 720 mmHg 87%
    04:00 -2°C° 0 mm 3 mps 720 mmHg 88%
    05:00 -4°C° 0 mm 3 mps 721 mmHg 88%
    06:00 -3°C° 0 mm 2 mps 721 mmHg 89%
    07:00 -1°C° 0 mm 1 mps 721 mmHg 90%
    08:00 -3°C° 0 mm 2 mps 721 mmHg 86%
    09:00 -2°C° 0 mm 3 mps 721 mmHg 82%
    10:00 -2°C° 0 mm 3 mps 721 mmHg 78%
    11:00 -2°C° 0 mm 4 mps 721 mmHg 74%
    12:00 -1°C° 0 mm 4 mps 720 mmHg 71%
    13:00 -1°C° 0 mm 4 mps 720 mmHg 67%
    14:00 -1°C° 0 mm 4 mps 719 mmHg 70%
    15:00 -2°C° 0 mm 4 mps 718 mmHg 72%
    16:00 -3°C° 0 mm 4 mps 717 mmHg 75%
    17:00 -4°C° 0 mm 5 mps 716 mmHg 73%
    18:00 -4°C° 0 mm 5 mps 716 mmHg 72%
    19:00 -4°C° 0 mm 6 mps 715 mmHg 71%
    20:00 -4°C° 0 mm 6 mps 714 mmHg 68%
    21:00 -3°C° 0 mm 7 mps 713 mmHg 65%
    22:00 -3°C° 0 mm 7 mps 712 mmHg 62%
    23:00 -3°C° 0 mm 7 mps 711 mmHg 63%

    Tomorrow, 14 December, Thursday

    Time Temperature Precipitation Wind Pressure Humidity
    00:00 -2°C° 0 mm 7 mps 710 mmHg 63%
    01:00 -2°C° 0 mm 7 mps 709 mmHg 64%
    02:00 -2°C° 0.1 mm 8 mps 708 mmHg 65%
    03:00 -1°C° 0.1 mm 8 mps 707 mmHg 67%
    04:00 -1°C° 0.1 mm 8 mps 706 mmHg 68%
    05:00 -1°C° 0.3 mm 8 mps 706 mmHg 69%
    06:00 0°C° 0.3 mm 8 mps 705 mmHg 70%
    07:00 0°C° 0.3 mm 8 mps 705 mmHg 71%
    08:00 0°C° 0.1 mm 8 mps 705 mmHg 72%
    09:00 0°C° 0.1 mm 8 mps 706 mmHg 73%
    10:00 0°C° 0.1 mm 7 mps 706 mmHg 74%
    11:00 0°C° 0.2 mm 9 mps 706 mmHg 71%
    12:00 -2°C° 0.2 mm 10 mps 706 mmHg 67%
    13:00 -2°C° 0.2 mm 12 mps 707 mmHg 63%
    14:00 -3°C° 0.2 mm 10 mps 707 mmHg 64%
    15:00 -2°C° 0.2 mm 8 mps 708 mmHg 65%
    16:00 -3°C° 0.2 mm 6 mps 709 mmHg 66%
    17:00 -3°C° 0 mm 6 mps 709 mmHg 68%
    18:00 -3°C° 0 mm 6 mps 709 mmHg 71%
    19:00 -3°C° 0 mm 6 mps 709 mmHg 74%
    20:00 -3°C° 0 mm 6 mps 709 mmHg 74%
    21:00 -3°C° 0 mm 6 mps 708 mmHg 74%
    22:00 -2°C° 0 mm 6 mps 708 mmHg 74%
    23:00 -3°C° 0.1 mm 6 mps 707 mmHg 75%

    Day after tomorrow, 15 December, Friday

    Time Temperature Precipitation Wind Pressure Humidity
    00:00 -3°C° 0.1 mm 6 mps 707 mmHg 77%
    01:00 -3°C° 0.1 mm 6 mps 706 mmHg 78%
    02:00 -2°C° 0.4 mm 6 mps 706 mmHg 79%
    03:00 -2°C° 0.4 mm 6 mps 705 mmHg 80%
    04:00 -2°C° 0.4 mm 6 mps 705 mmHg 81%
    05:00 -2°C° 0.7 mm 7 mps 705 mmHg 81%
    06:00 -1°C° 0.7 mm 7 mps 705 mmHg 82%
    07:00 -1°C° 0.7 mm 7 mps 705 mmHg 83%
    08:00 -1°C° 0.5 mm 7 mps 706 mmHg 82%
    09:00 -1°C° 0.5 mm 6 mps 706 mmHg 82%
    10:00 -1°C° 0.5 mm 6 mps 707 mmHg 82%
    11:00 -1°C° 0 mm 6 mps 707 mmHg 79%
    12:00 -1°C° 0 mm 6 mps 708 mmHg 77%
    13:00 0°C° 0 mm 5 mps 708 mmHg 75%
    14:00 -1°C° 0 mm 5 mps 708 mmHg 77%
    15:00 -2°C° 0 mm 4 mps 709 mmHg 79%
    16:00 -2°C° 0 mm 3 mps 709 mmHg 81%
    17:00 -2°C° 0 mm 3 mps 709 mmHg 82%
    18:00 -3°C° 0 mm 2 mps 710 mmHg 83%
    19:00 -3°C° 0 mm 2 mps 710 mmHg 84%
    20:00 -3°C° 0 mm 2 mps 710 mmHg 84%
    21:00 -3°C° 0 mm 2 mps 710 mmHg 84%
    22:00 -3°C° 0 mm 2 mps 710 mmHg 84%
    23:00 -3°C° 0 mm 2 mps 710 mmHg 85%

    16 December, Saturday

    Time Temperature Precipitation Wind Pressure Humidity
    00:00 -2°C° 0 mm 2 mps 710 mmHg 86%
    01:00 -2°C° 0 mm 2 mps 710 mmHg 87%
    02:00 -2°C° 0 mm 2 mps 710 mmHg 88%
    03:00 -2°C° 0 mm 2 mps 710 mmHg 89%
    04:00 -2°C° 0 mm 2 mps 710 mmHg 90%
    05:00 -3°C° 0 mm 2 mps 710 mmHg 90%
    06:00 -3°C° 0 mm 2 mps 710 mmHg 90%
    07:00 -3°C° 0 mm 2 mps 710 mmHg 91%
    08:00 -2°C° 0 mm 2 mps 711 mmHg 89%
    09:00 -2°C° 0 mm 2 mps 711 mmHg 88%
    10:00 -1°C° 0 mm 3 mps 712 mmHg 86%
    11:00 -1°C° 0 mm 3 mps 712 mmHg 85%
    12:00 0°C° 0 mm 3 mps 712 mmHg 83%
    13:00 -1°C° 0 mm 4 mps 713 mmHg 81%
    14:00 -2°C° 0 mm 4 mps 713 mmHg 83%
    15:00 -1°C° 0 mm 3 mps 713 mmHg 85%
    16:00 -2°C° 0 mm 3 mps 714 mmHg 87%
    17:00 -2°C° 0 mm 3 mps 714 mmHg 87%
    18:00 -2°C° 0 mm 3 mps 715 mmHg 87%
    19:00 -2°C° 0 mm 3 mps 716 mmHg 88%
    20:00 -4°C° 0 mm 3 mps 716 mmHg 88%
    21:00 -4°C° 0 mm 4 mps 716 mmHg 88%
    22:00 -4°C° 0 mm 4 mps 717 mmHg 88%
    23:00 -4°C° 0 mm 4 mps 717 mmHg 88%

    17 December, Sunday

    Time Temperature Precipitation Wind Pressure Humidity
    00:00 -4°C° 0 mm 4 mps 717 mmHg 88%
    01:00 -4°C° 0 mm 3 mps 717 mmHg 88%
    02:00 -4°C° 0 mm 4 mps 717 mmHg 88%
    03:00 -4°C° 0 mm 4 mps 718 mmHg 88%
    04:00 -4°C° 0 mm 4 mps 718 mmHg 88%
    05:00 -4°C° 0 mm 4 mps 718 mmHg 88%
    06:00 -4°C° 0 mm 4 mps 719 mmHg 88%
    07:00 -4°C° 0 mm 4 mps 719 mmHg 87%
    08:00 -3°C° 0 mm 4 mps 719 mmHg 86%
    09:00 -4°C° 0 mm 5 mps 720 mmHg 84%
    10:00 -4°C° 0 mm 5 mps 720 mmHg 83%
    11:00 -2°C° 0.1 mm 5 mps 720 mmHg 82%
    12:00 -2°C° 0.1 mm 5 mps 720 mmHg 82%
    13:00 -2°C° 0.1 mm 5 mps 721 mmHg 81%
    14:00 -2°C° 0.1 mm 5 mps 721 mmHg 82%
    15:00 -4°C° 0.1 mm 5 mps 721 mmHg 84%
    16:00 -3°C° 0.1 mm 4 mps 721 mmHg 85%
    17:00 -3°C° 0.1 mm 4 mps 722 mmHg 86%
    18:00 -3°C° 0.1 mm 4 mps 722 mmHg 87%
    19:00 -3°C° 0.1 mm 4 mps 722 mmHg 89%
    20:00 -4°C° 0.2 mm 4 mps 723 mmHg 89%
    21:00 -4°C° 0.2 mm 4 mps 723 mmHg 89%
    22:00 -4°C° 0.2 mm 4 mps 723 mmHg 89%
    23:00 -4°C° 0.1 mm 4 mps 724 mmHg 90%

    18 December, Monday

    Time Temperature Precipitation Wind Pressure Humidity
    00:00 -4°C° 0.1 mm 4 mps 724 mmHg 90%
    01:00 -5°C° 0.1 mm 4 mps 724 mmHg 90%
    02:00 -5°C° 0 mm 4 mps 724 mmHg 90%
    03:00 -5°C° 0 mm 4 mps 725 mmHg 90%
    04:00 -5°C° 0 mm 3 mps 725 mmHg 90%
    05:00 -5°C° 0 mm 3 mps 725 mmHg 90%
    06:00 -5°C° 0 mm 3 mps 725 mmHg 91%
    07:00 -4°C° 0 mm 2 mps 725 mmHg 91%
    08:00 -4°C° 0 mm 2 mps 725 mmHg 90%
    09:00 -3°C° 0 mm 2 mps 725 mmHg 88%
    10:00 -3°C° 0 mm 2 mps 725 mmHg 87%
    11:00 -2°C° 0 mm 2 mps 725 mmHg 86%
    12:00 -2°C° 0 mm 2 mps 725 mmHg 85%
    13:00 -1°C° 0 mm 2 mps 724 mmHg 83%
    14:00 -2°C° 0 mm 2 mps 724 mmHg 86%
    15:00 0°C° 0 mm 1 mps 724 mmHg 88%
    16:00 -1°C° 0 mm 1 mps 724 mmHg 90%
    17:00 -1°C° 0 mm 1 mps 724 mmHg 91%
    18:00 -2°C° 0 mm 1 mps 724 mmHg 91%
    19:00 -2°C° 0 mm 1 mps 725 mmHg 92%
    20:00 -2°C° 0 mm 1 mps 725 mmHg 92%
    21:00 -2°C° 0 mm 1 mps 726 mmHg 91%
    22:00 -2°C° 0 mm 1 mps 726 mmHg 91%
    23:00 -2°C° 0 mm 1 mps 726 mmHg 91%
    Show more